EW1940 Weather Reports


Display with metric or nautical units.
time (UTC)temp
F
wind
direction
speed
MPH
gust
MPH
rain 1hr
in
rain 24hr
in
rain mn
in
humidity
%
barometer
mb
20260507004016 46 0.0 0.0 0.00 0.00 0.00 84 1014.8
20260507003016 47 0.0 0.0 0.00 0.00 0.00 83 1014.8
20260507002057 47 0.0 0.0 0.00 0.00 0.00 83 1014.8
20260507001017 47 0.0 0.0 0.00 0.00 0.00 82 1014.9
20260507000018 48 0.0 0.0 0.00 0.00 0.00 80 1015.0
20260506235016 48 0.0 0.0 0.00 0.00 0.00 79 1014.9
20260506234017 49 0.0 0.0 0.00 0.00 0.00 79 1014.9
20260506233017 49 0.0 0.0 0.00 0.00 0.00 77 1014.8
20260506232016 50 0.0 0.0 0.00 0.00 0.00 76 1014.7
20260506231017 51 0.0 0.0 0.00 0.00 0.00 75 1014.7
20260506230016 51 0.0 0.0 0.00 0.00 0.00 75 1014.6
20260506225016 52 0.0 0.0 0.00 0.00 0.00 74 1014.5
20260506224017 52 0.0 0.0 0.00 0.00 0.00 74 1014.6
20260506223018 52 0.0 0.0 0.00 0.00 0.00 73 1014.7
20260506222037 53 0.0 0.0 0.00 0.00 0.00 73 1014.6
20260506221016 53 0.0 0.0 0.00 0.00 0.00 72 1014.5
20260506220016 53 0.0 0.0 0.00 0.00 0.00 72 1014.5
20260506215017 53 0.0 0.0 0.00 0.00 0.00 72 1014.5
20260506214017 54 0.0 3.0 0.00 0.00 0.00 72 1014.5
20260506213015 54 23 1.0 3.0 0.00 0.00 0.00 71 1014.5
20260506212100 54 0.0 2.0 0.00 0.00 0.00 71 1014.4
20260506211017 54 0.0 1.0 0.00 0.00 0.00 71 1014.3
20260506210016 54 0.0 0.0 0.00 0.00 0.00 70 1014.3
20260506205016 55 0.0 0.0 0.00 0.00 0.00 70 1014.1
20260506204015 55 0.0 0.0 0.00 0.00 0.00 69 1014.1
20260506203017 55 0.0 0.0 0.00 0.00 0.00 68 1014.1
20260506202016 55 0.0 0.0 0.00 0.00 0.00 66 1014.0
20260506201015 55 0.0 2.0 0.00 0.00 0.00 66 1013.9
20260506200036 56 0.0 2.0 0.00 0.00 0.00 66 1013.9
20260506195016 56 45 1.0 3.0 0.00 0.00 0.00 65 1013.8
20260506194019 56 45 1.0 3.0 0.00 0.00 0.00 64 1013.6
20260506193015 56 45 1.0 3.0 0.00 0.00 0.00 63 1013.4
20260506192016 57 45 1.0 3.0 0.00 0.00 0.00 63 1013.5
20260506191036 57 45 2.0 4.0 0.00 0.00 0.00 62 1013.4
20260506190037 57 45 2.0 7.0 0.00 0.00 0.00 62 1013.3
20260506185015 58 23 3.0 7.0 0.00 0.00 0.00 62 1013.2
20260506184015 58 23 3.0 7.0 0.00 0.00 0.00 61 1013.1
20260506183015 58 45 3.0 6.0 0.00 0.00 0.00 59 1013.1
20260506182019 58 0 3.0 7.0 0.00 0.00 0.00 56 1013.0
20260506181017 59 23 4.0 10.0 0.00 0.00 0.00 54 1013.0
20260506180019 59 45 5.0 10.0 0.00 0.00 0.00 54 1012.8
20260506175019 59 23 2.0 9.0 0.00 0.00 0.00 55 1012.7
20260506174019 60 0 3.0 8.0 0.00 0.00 0.00 54 1012.6
20260506173037 60 23 5.0 9.0 0.00 0.00 0.00 53 1012.6
20260506172039 60 45 4.0 8.0 0.00 0.00 0.00 53 1012.6
20260506171017 60 23 2.0 4.0 0.00 0.00 0.00 54 1012.5
20260506170019 61 45 5.0 9.0 0.00 0.00 0.00 52 1012.5
20260506165019 61 23 4.0 8.0 0.00 0.00 0.00 52 1012.5
20260506164019 61 45 4.0 10.0 0.00 0.00 0.00 50 1012.4
20260506163017 61 23 2.0 7.0 0.00 0.00 0.00 50 1012.4
20260506162019 61 23 5.0 11.0 0.00 0.00 0.00 51 1012.4
20260506161017 61 0 3.0 7.0 0.00 0.00 0.00 49 1012.4
20260506160019 61 0 2.0 5.0 0.00 0.00 0.00 50 1012.4
20260506155017 61 0 3.0 7.0 0.00 0.00 0.00 48 1012.5
20260506154019 62 315 2.0 5.0 0.00 0.00 0.00 49 1012.5
20260506153037 62 338 3.0 9.0 0.00 0.00 0.00 47 1012.5
20260506152017 62 0 2.0 7.0 0.00 0.00 0.00 48 1012.5
20260506151017 62 0 3.0 8.0 0.00 0.00 0.00 46 1012.5
20260506150019 62 338 2.0 8.0 0.00 0.00 0.00 48 1012.5
20260506145017 62 68 2.0 8.0 0.00 0.00 0.00 47 1012.5
20260506144037 62 0 4.0 8.0 0.00 0.00 0.00 47 1012.6
20260506143017 62 23 3.0 8.0 0.00 0.00 0.00 46 1012.5
20260506142017 63 23 4.0 9.0 0.00 0.00 0.00 48 1012.6
20260506141019 62 45 5.0 11.0 0.00 0.00 0.00 48 1012.6
20260506140017 63 338 3.0 7.0 0.00 0.00 0.00 47 1012.5
20260506135017 64 23 3.0 7.0 0.00 0.00 0.00 44 1012.6
20260506134017 65 338 3.0 7.0 0.00 0.00 0.00 45 1012.5
20260506133019 64 338 5.0 10.0 0.00 0.00 0.00 43 1012.6
20260506132018 65 45 4.0 9.0 0.00 0.00 0.00 46 1012.6
20260506131018 65 23 4.0 10.0 0.00 0.00 0.00 45 1012.5
20260506130018 65 45 4.0 9.0 0.00 0.00 0.00 45 1012.6
20260506125037 65 338 3.0 6.0 0.00 0.00 0.00 45 1012.6
20260506124017 64 45 4.0 11.0 0.00 0.00 0.00 46 1012.6
20260506123019 65 23 6.0 16.0 0.00 0.00 0.00 43 1012.6
20260506122018 66 45 6.0 11.0 0.00 0.00 0.00 41 1012.7
20260506121017 66 0 5.0 11.0 0.00 0.00 0.00 42 1012.7
20260506120017 65 45 5.0 10.0 0.00 0.00 0.00 44 1012.7
20260506115018 65 0 4.0 9.0 0.00 0.00 0.00 45 1012.9
20260506114017 64 0 3.0 10.0 0.00 0.00 0.00 47 1012.9
20260506113038 65 338 5.0 10.0 0.00 0.00 0.00 47 1012.8
20260506112017 66 23 4.0 13.0 0.00 0.00 0.00 42 1012.8
20260506111017 66 0 5.0 13.0 0.00 0.00 0.00 42 1012.9
20260506110018 65 0 4.0 11.0 0.00 0.00 0.00 45 1012.9
20260506105017 64 23 3.0 7.0 0.00 0.00 0.00 48 1012.9
20260506104018 64 45 3.0 9.0 0.00 0.00 0.00 47 1013.0
20260506103018 63 45 5.0 10.0 0.00 0.00 0.00 48 1013.0
20260506102018 63 45 5.0 10.0 0.00 0.00 0.00 46 1013.0
20260506101038 63 0 5.0 10.0 0.00 0.00 0.00 47 1013.0
20260506100018 62 45 3.0 10.0 0.00 0.00 0.00 49 1013.0
20260506095016 62 315 4.0 8.0 0.00 0.00 0.00 52 1013.1
20260506094016 61 23 3.0 8.0 0.00 0.00 0.00 54 1013.1
20260506093016 61 315 4.0 9.0 0.00 0.00 0.00 55 1013.1
20260506092017 61 315 3.0 7.0 0.00 0.00 0.00 56 1013.1
20260506091018 61 23 3.0 10.0 0.00 0.00 0.00 55 1013.1
20260506090036 60 23 5.0 11.0 0.00 0.00 0.00 59 1013.0
20260506085016 59 23 4.0 10.0 0.00 0.00 0.00 59 1013.0
20260506084018 60 45 6.0 12.0 0.00 0.00 0.00 59 1013.1
20260506083038 59 23 6.0 10.0 0.00 0.00 0.00 61 1013.1
20260506082016 58 0 5.0 10.0 0.00 0.00 0.00 64 1013.1
20260506081016 57 23 4.0 9.0 0.00 0.00 0.00 68 1012.9
20260506073016 53 23 6.0 12.0 0.00 0.00 0.00 74 1012.8
20260506072018 52 23 4.0 9.0 0.00 0.00 0.00 75 1012.8
20260506071016 52 23 6.0 12.0 0.00 0.00 0.00 77 1012.7
20260506062018 51 23 4.0 10.0 0.00 0.00 0.00 78 1012.5
20260506061016 51 23 5.0 10.0 0.00 0.00 0.00 79 1012.4
20260506051017 51 23 4.0 9.0 0.00 0.00 0.00 80 1012.1
20260506045016 51 45 2.0 7.0 0.00 0.00 0.00 79 1011.9
20260506044016 52 45 1.0 3.0 0.00 0.00 0.00 78 1011.9
20260506043017 52 23 1.0 6.0 0.00 0.00 0.00 77 1011.9
20260506042016 52 45 2.0 5.0 0.00 0.00 0.00 77 1012.0
20260506041016 52 45 3.0 8.0 0.00 0.00 0.00 76 1012.0
20260506040016 52 45 2.0 7.0 0.00 0.00 0.00 76 1012.0
20260506035017 52 68 2.0 4.0 0.00 0.00 0.00 75 1011.9
20260506034036 52 45 2.0 6.0 0.00 0.00 0.00 75 1012.0
20260506033017 52 45 2.0 4.0 0.00 0.00 0.00 75 1011.9
20260506032016 52 45 3.0 8.0 0.00 0.00 0.00 74 1011.9
20260506031016 52 45 4.0 11.0 0.00 0.00 0.00 73 1012.0
20260506030016 53 45 4.0 11.0 0.00 0.00 0.00 73 1011.9
20260506025017 53 45 2.0 5.0 0.00 0.00 0.00 73 1012.0
20260506024017 53 45 3.0 8.0 0.00 0.00 0.00 73 1011.9
20260506023037 53 45 4.0 13.0 0.00 0.00 0.00 73 1011.9
20260506022016 53 45 4.0 12.0 0.00 0.00 0.00 74 1011.9
20260506021016 53 45 5.0 12.0 0.00 0.00 0.00 75 1011.9
20260506020016 54 45 4.0 9.0 0.00 0.00 0.00 76 1012.0
20260506015016 54 45 3.0 10.0 0.00 0.00 0.00 76 1012.0
20260506014017 54 45 2.0 5.0 0.00 0.00 0.00 75 1012.0
20260506013015 54 45 3.0 7.0 0.00 0.00 0.00 75 1012.0
20260506012016 54 45 3.0 7.0 0.00 0.00 0.00 75 1012.1
20260506011015 54 45 3.0 8.0 0.00 0.00 0.00 74 1012.1
20260506010016 54 45 3.0 8.0 0.00 0.00 0.00 74 1012.1
20260506005016 54 90 2.0 5.0 0.00 0.00 0.00 73 1012.1